Time,TemperatureF,DewpointF,PressureIn,WindDirection,WindDirectionDegrees,WindSpeedMPH,WindSpeedGustMPH,Humidity,HourlyPrecipIn,Conditions,Clouds,dailyrainin,SoftwareType,DateUTC
2013-03-20 00:01:00,43.5,21.4,29.88,WSW,247,4.3,-999.0,41,-99.99,,,0.00,Acu-Link.com,2013-03-20 04:01:00,
2013-03-20 00:16:00,43.5,21.4,29.88,WSW,247,4.3,-999.0,41,-99.99,,,0.00,Acu-Link.com,2013-03-20 04:16:00,
2013-03-20 00:31:00,43.5,21.4,29.87,WSW,247,4.3,-999.0,41,-99.99,,,0.00,Acu-Link.com,2013-03-20 04:31:00,
2013-03-20 00:47:00,43.5,21.4,29.88,WSW,247,4.3,-999.0,41,-99.99,,,0.00,Acu-Link.com,2013-03-20 04:47:00,
2013-03-20 01:17:00,43.5,21.4,29.85,WSW,247,4.3,-999.0,41,-99.99,,,0.00,Acu-Link.com,2013-03-20 05:17:00,
2013-03-20 01:32:00,43.5,21.4,29.85,WSW,247,4.3,-999.0,41,-99.99,,,0.00,Acu-Link.com,2013-03-20 05:32:00,
2013-03-20 01:47:00,43.5,21.4,29.85,WSW,247,4.3,-999.0,41,-99.99,,,0.00,Acu-Link.com,2013-03-20 05:47:00,
2013-03-20 02:03:00,43.5,21.4,29.86,WSW,247,4.3,-999.0,41,-99.99,,,0.00,Acu-Link.com,2013-03-20 06:03:00,
2013-03-20 02:18:00,43.5,21.4,29.85,WSW,247,4.3,-999.0,41,-99.99,,,0.00,Acu-Link.com,2013-03-20 06:18:00,
2013-03-20 02:33:00,43.5,21.4,29.85,WSW,247,4.3,-999.0,41,-99.99,,,0.00,Acu-Link.com,2013-03-20 06:33:00,
2013-03-20 02:48:00,43.5,21.4,29.85,WSW,247,4.3,-999.0,41,-99.99,,,0.00,Acu-Link.com,2013-03-20 06:48:00,
2013-03-20 03:03:00,43.5,21.4,29.86,WSW,247,4.3,-999.0,41,-99.99,,,0.00,Acu-Link.com,2013-03-20 07:03:00,
2013-03-20 03:19:00,43.5,21.4,29.86,WSW,247,4.3,-999.0,41,-99.99,,,0.00,Acu-Link.com,2013-03-20 07:19:00,
2013-03-20 03:34:00,43.5,21.4,29.86,WSW,247,4.3,-999.0,41,-99.99,,,0.00,Acu-Link.com,2013-03-20 07:34:00,
2013-03-20 03:49:00,43.5,21.4,29.85,WSW,247,4.3,-999.0,41,-99.99,,,0.00,Acu-Link.com,2013-03-20 07:49:00,
2013-03-20 04:04:00,43.5,21.4,29.84,WSW,247,4.3,-999.0,41,-99.99,,,0.00,Acu-Link.com,2013-03-20 08:04:00,
2013-03-20 04:27:00,43.5,21.4,29.84,WSW,247,4.3,-999.0,41,-99.99,,,0.00,Acu-Link.com,2013-03-20 08:27:00,
2013-03-20 04:43:00,43.5,21.4,29.83,WSW,247,4.3,-999.0,41,-99.99,,,0.00,Acu-Link.com,2013-03-20 08:43:00,
2013-03-20 04:58:00,43.5,21.4,29.83,WSW,247,4.3,-999.0,41,-99.99,,,0.00,Acu-Link.com,2013-03-20 08:58:00,
2013-03-20 05:13:00,43.5,21.4,29.83,WSW,247,4.3,-999.0,41,-99.99,,,0.00,Acu-Link.com,2013-03-20 09:13:00,
2013-03-20 05:28:00,43.5,21.4,29.82,WSW,247,4.3,-999.0,41,-99.99,,,0.00,Acu-Link.com,2013-03-20 09:28:00,
2013-03-20 05:43:00,43.5,21.4,29.82,WSW,247,4.3,-999.0,41,-99.99,,,0.00,Acu-Link.com,2013-03-20 09:43:00,
2013-03-20 05:59:00,43.5,21.4,29.83,WSW,247,4.3,-999.0,41,-99.99,,,0.00,Acu-Link.com,2013-03-20 09:59:00,
2013-03-20 06:14:00,43.5,21.4,29.83,WSW,247,4.3,-999.0,41,-99.99,,,0.00,Acu-Link.com,2013-03-20 10:14:00,
2013-03-20 06:29:00,37.0,7.0,29.83,West,270,2.7,-999.0,28,-99.99,,,0.00,Acu-Link.com,2013-03-20 10:29:00,
2013-03-20 06:44:00,37.4,8.1,29.84,North,0,2.7,-999.0,29,-99.99,,,0.00,Acu-Link.com,2013-03-20 10:44:00,
2013-03-20 07:00:00,37.0,7.8,29.85,NNW,337,1.1,-999.0,29,-99.99,,,0.00,Acu-Link.com,2013-03-20 11:00:00,
2013-03-20 07:15:00,36.5,8.8,29.85,NNW,337,2.7,-999.0,31,-99.99,,,0.00,Acu-Link.com,2013-03-20 11:15:00,
2013-03-20 07:30:00,36.9,8.4,29.86,WNW,292,1.1,-999.0,30,-99.99,,,0.00,Acu-Link.com,2013-03-20 11:30:00,
2013-03-20 07:45:00,36.9,11.1,29.86,South,180,0.0,-999.0,34,-99.99,,,0.00,Acu-Link.com,2013-03-20 11:45:00,
2013-03-20 08:00:00,36.9,13.1,29.86,West,270,0.0,-999.0,37,-99.99,,,0.00,Acu-Link.com,2013-03-20 12:00:00,
2013-03-20 08:16:00,36.9,15.4,29.86,East,90,0.0,-999.0,41,-99.99,,,0.00,Acu-Link.com,2013-03-20 12:16:00,
2013-03-20 09:16:00,39.9,9.5,29.86,ENE,67,2.2,-999.0,28,-99.99,,,0.00,Acu-Link.com,2013-03-20 13:16:00,
2013-03-20 09:32:00,40.1,8.0,29.86,NNE,22,2.2,-999.0,26,-99.99,,,0.00,Acu-Link.com,2013-03-20 13:32:00,
2013-03-20 09:47:00,40.5,10.0,29.87,ENE,67,4.7,-999.0,28,-99.99,,,0.00,Acu-Link.com,2013-03-20 13:47:00,
2013-03-20 10:17:00,41.9,6.8,29.88,ENE,67,6.3,-999.0,23,-99.99,,,0.00,Acu-Link.com,2013-03-20 14:17:00,
2013-03-20 10:32:00,42.3,7.1,29.89,NE,45,3.1,-999.0,23,-99.99,,,0.00,Acu-Link.com,2013-03-20 14:32:00,
2013-03-20 10:48:00,42.6,8.4,29.89,East,90,4.7,-999.0,24,-99.99,,,0.00,Acu-Link.com,2013-03-20 14:48:00,
2013-03-20 11:03:00,41.9,8.7,29.89,ENE,67,5.1,-999.0,25,-99.99,,,0.00,Acu-Link.com,2013-03-20 15:03:00,
2013-03-20 11:18:00,42.6,10.2,29.88,East,90,5.1,-999.0,26,-99.99,,,0.00,Acu-Link.com,2013-03-20 15:18:00,
2013-03-20 11:33:00,42.8,6.6,29.88,ENE,67,3.1,-999.0,22,-99.99,,,0.00,Acu-Link.com,2013-03-20 15:33:00,
2013-03-20 11:49:00,44.4,9.0,29.87,ENE,67,5.1,-999.0,23,-99.99,,,0.00,Acu-Link.com,2013-03-20 15:49:00,
2013-03-20 12:04:00,46.9,11.1,29.86,ESE,112,3.1,-999.0,23,-99.99,,,0.00,Acu-Link.com,2013-03-20 16:04:00,
2013-03-20 12:19:00,47.7,14.5,29.85,NNE,22,2.7,-999.0,26,-99.99,,,0.00,Acu-Link.com,2013-03-20 16:19:00,
2013-03-20 12:34:00,48.9,15.6,29.85,ENE,67,4.3,-999.0,26,-99.99,,,0.00,Acu-Link.com,2013-03-20 16:34:00,
2013-03-20 12:50:00,49.1,18.2,29.84,NNE,22,4.7,-999.0,29,-99.99,,,0.00,Acu-Link.com,2013-03-20 16:50:00,
2013-03-20 13:05:00,49.8,18.9,29.83,East,90,1.6,-999.0,29,-99.99,,,0.00,Acu-Link.com,2013-03-20 17:05:00,
2013-03-20 13:20:00,49.3,16.7,29.82,East,90,4.7,-999.0,27,-99.99,,,0.00,Acu-Link.com,2013-03-20 17:20:00,
2013-03-20 13:35:00,52.0,19.1,29.82,East,90,5.8,-999.0,27,-99.99,,,0.00,Acu-Link.com,2013-03-20 17:35:00,
2013-03-20 13:50:00,51.6,19.6,29.79,SE,135,1.1,-999.0,28,-99.99,,,0.00,Acu-Link.com,2013-03-20 17:50:00,
2013-03-20 14:06:00,52.0,19.1,29.78,NNE,22,1.6,-999.0,27,-99.99,,,0.00,Acu-Link.com,2013-03-20 18:06:00,
2013-03-20 14:36:00,52.2,17.4,29.76,ENE,67,7.4,-999.0,25,-99.99,,,0.00,Acu-Link.com,2013-03-20 18:36:00,
2013-03-20 14:51:00,53.1,16.3,29.74,East,90,2.7,-999.0,23,-99.99,,,0.00,Acu-Link.com,2013-03-20 18:51:00,
2013-03-20 15:06:00,53.6,13.5,29.72,SSE,157,3.8,-999.0,20,-99.99,,,0.00,Acu-Link.com,2013-03-20 19:06:00,
2013-03-20 15:22:00,52.9,12.9,29.71,SSE,157,4.3,-999.0,20,-99.99,,,0.00,Acu-Link.com,2013-03-20 19:22:00,
2013-03-20 15:37:00,52.9,10.6,29.72,West,270,4.3,-999.0,18,-99.99,,,0.00,Acu-Link.com,2013-03-20 19:37:00,
2013-03-20 15:52:00,52.9,12.9,29.71,East,90,10.3,-999.0,20,-99.99,,,0.00,Acu-Link.com,2013-03-20 19:52:00,
2013-03-20 16:07:00,52.2,13.4,29.70,East,90,4.3,-999.0,21,-99.99,,,0.00,Acu-Link.com,2013-03-20 20:07:00,
2013-03-20 16:23:00,51.4,14.9,29.69,ENE,67,3.8,-999.0,23,-99.99,,,0.00,Acu-Link.com,2013-03-20 20:23:00,
2013-03-20 16:38:00,50.4,15.0,29.68,ESE,112,4.7,-999.0,24,-99.99,,,0.00,Acu-Link.com,2013-03-20 20:38:00,
2013-03-20 16:53:00,49.5,14.2,29.68,North,0,6.3,-999.0,24,-99.99,,,0.00,Acu-Link.com,2013-03-20 20:53:00,
2013-03-20 17:08:00,49.5,14.2,29.67,East,90,8.9,-999.0,24,-99.99,,,0.00,Acu-Link.com,2013-03-20 21:08:00,
2013-03-20 17:23:00,48.7,13.6,29.67,East,90,4.7,-999.0,24,-99.99,,,0.00,Acu-Link.com,2013-03-20 21:23:00,
2013-03-20 17:39:00,49.5,15.1,29.67,NNE,22,5.1,-999.0,25,-99.99,,,0.00,Acu-Link.com,2013-03-20 21:39:00,
2013-03-20 17:54:00,48.4,15.1,29.67,South,180,4.7,-999.0,26,-99.99,,,0.00,Acu-Link.com,2013-03-20 21:54:00,
2013-03-20 18:09:00,47.7,17.0,29.67,East,90,6.7,-999.0,29,-99.99,,,0.00,Acu-Link.com,2013-03-20 22:09:00,
2013-03-20 18:24:00,46.9,17.1,29.66,East,90,5.1,-999.0,30,-99.99,,,0.00,Acu-Link.com,2013-03-20 22:24:00,
2013-03-20 18:40:00,46.6,15.2,29.66,SE,135,1.6,-999.0,28,-99.99,,,0.00,Acu-Link.com,2013-03-20 22:40:00,
2013-03-20 18:55:00,46.2,14.9,29.66,East,90,1.1,-999.0,28,-99.99,,,0.00,Acu-Link.com,2013-03-20 22:55:00,
2013-03-20 19:10:00,46.0,16.4,29.66,NNE,22,3.1,-999.0,30,-99.99,,,0.00,Acu-Link.com,2013-03-20 23:10:00,
2013-03-20 19:25:00,45.9,16.2,29.66,ESE,112,9.4,-999.0,30,-99.99,,,0.00,Acu-Link.com,2013-03-20 23:25:00,
2013-03-20 19:40:00,45.3,16.5,29.66,NNW,337,3.1,-999.0,31,-99.99,,,0.00,Acu-Link.com,2013-03-20 23:40:00,
2013-03-20 19:56:00,45.1,16.3,29.66,ESE,112,10.3,-999.0,31,-99.99,,,0.00,Acu-Link.com,2013-03-20 23:56:00,
2013-03-20 20:26:00,44.6,16.6,29.65,WSW,247,4.7,-999.0,32,-99.99,,,0.00,Acu-Link.com,2013-03-21 00:26:00,
2013-03-20 20:41:00,44.4,17.1,29.65,South,180,3.1,-999.0,33,-99.99,,,0.00,Acu-Link.com,2013-03-21 00:41:00,
2013-03-20 20:56:00,43.9,17.4,29.64,SSW,202,0.0,-999.0,34,-99.99,,,0.00,Acu-Link.com,2013-03-21 00:56:00,
2013-03-20 21:12:00,42.4,23.1,29.63,South,180,11.4,-999.0,46,-99.99,,,0.00,Acu-Link.com,2013-03-21 01:12:00,
2013-03-20 21:27:00,42.3,22.5,29.65,WNW,292,4.3,-999.0,45,-99.99,,,0.00,Acu-Link.com,2013-03-21 01:27:00,
2013-03-20 21:42:00,41.7,24.0,29.66,NNE,22,4.3,-999.0,49,-99.99,,,0.00,Acu-Link.com,2013-03-21 01:42:00,
2013-03-20 21:57:00,40.6,25.8,29.66,NW,315,6.7,-999.0,55,-99.99,,,0.00,Acu-Link.com,2013-03-21 01:57:00,
2013-03-20 22:13:00,39.4,27.1,29.67,East,90,3.1,-999.0,61,-99.99,,,0.00,Acu-Link.com,2013-03-21 02:13:00,
2013-03-20 22:28:00,38.3,29.4,29.67,NNE,22,3.8,-999.0,70,-99.99,,,0.00,Acu-Link.com,2013-03-21 02:28:00,
2013-03-20 22:43:00,36.0,31.0,29.67,North,0,4.3,-999.0,82,-99.99,,,0.00,Acu-Link.com,2013-03-21 02:43:00,
2013-03-20 22:58:00,35.6,31.0,29.68,South,180,3.8,-999.0,83,-99.99,,,0.00,Acu-Link.com,2013-03-21 02:58:00,
2013-03-20 23:13:00,34.9,30.0,29.69,ESE,112,3.8,-999.0,82,-99.99,,,0.00,Acu-Link.com,2013-03-21 03:13:00,
2013-03-20 23:29:00,33.8,29.8,29.70,SE,135,3.1,-999.0,85,-99.99,,,0.00,Acu-Link.com,2013-03-21 03:29:00,
2013-03-20 23:44:00,33.6,29.0,29.69,NE,45,5.8,-999.0,83,-99.99,,,0.00,Acu-Link.com,2013-03-21 03:44:00,
2013-03-20 23:59:00,33.6,28.7,29.69,West,270,3.1,-999.0,82,-99.99,,,0.00,Acu-Link.com,2013-03-21 03:59:00,